Weather History for KBVO - March, 2013

Change the Weather History Date:

Wednesday, March 13, 2013

  Actual Average Record
Temperature  
Mean Temperature 38 °F -  
Max Temperature 55 °F 62 °F 86 °F (1967)
Min Temperature 21 °F 37 °F -7 °F (1948)
Degree Days  
Heating Degree Days 28    
Moisture  
Dew Point 22 °F    
Average Humidity 59    
Maximum Humidity 92    
Minimum Humidity 25    
Precipitation  
Precipitation 0.00 in - - ()
Sea Level Pressure  
Sea Level Pressure 30.43 in    
Wind  
Wind Speed 2 mph (SE)    
Max Wind Speed 10 mph    
Max Gust Speed -    
Visibility 10 miles    
Events      
Averages and records for this station are not official NWS values.
T = Trace of Precipitation, MM = Missing Value Source: NWS Daily Summary

Daily Weather History Graph

Daily Weather History Graph

Search for Another Location

Airport or City:

Trip Planner

Search our weather history database for the weather conditions in past years. The results will help you decide how hot, cold, wet, or windy it might be!

Date:

Astronomy

Mar. 13, 2013 Rise Set
Actual Time 7:37 AM CDT 7:29 PM CDT
Civil Twilight 7:11 AM CDT 7:55 PM CDT
Nautical Twilight 6:41 AM CDT 8:25 PM CDT
Astronomical Twilight 6:11 AM CDT 8:56 PM CDT
Moon 8:21 AM CDT (3/13) 9:42 PM CDT (3/13)
Length of Visible Light 12h 44m
Length of Day
11h 52m
Waxing Crescent, 4% of the Moon is Illuminated
Mar 13
Waxing Crescent
Mar 19
First Quarter
Mar 27
Full
Apr 2
Last Quarter
Apr 10
New

Hourly Weather History & Observations

Time (CDT) Temp. Windchill Dew Point Humidity Pressure Visibility Wind Dir Wind Speed Gust Speed Precip Events Conditions
12:53 AM 28.0 °F - 24.1 °F 85% 30.39 in 10.0 mi Calm Calm - N/A   Clear
1:53 AM 26.1 °F - 21.9 °F 84% 30.40 in 10.0 mi Calm Calm - N/A   Clear
3:53 AM 24.1 °F - 21.0 °F 88% 30.41 in 10.0 mi Calm Calm - N/A   Clear
4:53 AM 23.0 °F - 19.9 °F 88% 30.41 in 10.0 mi Calm Calm - N/A   Clear
5:53 AM 21.9 °F - 19.9 °F 92% 30.43 in 10.0 mi Calm Calm - N/A   Clear
6:53 AM 21.9 °F - 19.9 °F 92% 30.46 in 10.0 mi Calm Calm - N/A   Clear
7:53 AM 23.0 °F - 19.9 °F 88% 30.48 in 10.0 mi Calm Calm - N/A   Clear
8:53 AM 32.0 °F - 25.0 °F 75% 30.49 in 10.0 mi Calm Calm - N/A   Clear
9:53 AM 36.0 °F 31.1 °F 25.0 °F 64% 30.50 in 10.0 mi ENE 5.8 mph - N/A   Clear
10:53 AM 39.9 °F - 25.0 °F 55% 30.52 in 10.0 mi Calm Calm - N/A   Clear
11:53 AM 44.1 °F 42.5 °F 19.0 °F 37% 30.51 in 10.0 mi Variable 3.5 mph - N/A   Clear
12:53 PM 48.0 °F - 19.0 °F 32% 30.50 in 10.0 mi NE 6.9 mph - N/A   Clear
1:53 PM 50.0 °F - 18.0 °F 28% 30.47 in 10.0 mi East 4.6 mph - N/A   Partly Cloudy
2:53 PM 51.1 °F - 16.0 °F 25% 30.44 in 10.0 mi Calm Calm - N/A   Clear
3:53 PM 53.1 °F - 18.0 °F 25% 30.41 in 10.0 mi SE 8.1 mph - N/A   Clear
4:53 PM 54.0 °F - 19.9 °F 26% 30.40 in 10.0 mi SSE 10.4 mph - N/A   Clear
5:53 PM 53.1 °F - 19.9 °F 27% 30.38 in 10.0 mi SSE 6.9 mph - N/A   Clear
6:53 PM 51.1 °F - 19.9 °F 29% 30.37 in 10.0 mi SSE 6.9 mph - N/A   Clear
7:53 PM 42.1 °F - 24.1 °F 49% 30.37 in 10.0 mi Calm Calm - N/A   Clear
9:53 PM 37.9 °F 35.5 °F 26.1 °F 62% 30.36 in 10.0 mi South 3.5 mph - N/A   Clear
10:53 PM 37.0 °F - 26.1 °F 65% 30.36 in 10.0 mi Calm Calm - N/A   Clear
11:53 PM 34.0 °F - 26.1 °F 73% 30.35 in 10.0 mi Calm Calm - N/A   Clear